TimeCDT,TemperatureF,Dew PointF,Humidity,Sea Level PressureIn,VisibilityMPH,Wind Direction,Wind SpeedMPH,Gust SpeedMPH,PrecipitationIn,Events,Conditions,WindDirDegrees,DateUTC
12:53 AM,30.0,28.9,96,30.11,10.0,NW,5.8,-,N/A,,Clear,310,2013-10-16 05:53:00
1:53 AM,28.9,28.0,96,30.11,10.0,West,3.5,-,N/A,,Clear,270,2013-10-16 06:53:00
2:53 AM,27.0,27.0,100,30.10,10.0,WSW,4.6,-,N/A,,Clear,250,2013-10-16 07:53:00
3:53 AM,26.1,25.0,96,30.09,10.0,SSW,4.6,-,N/A,,Clear,200,2013-10-16 08:53:00
4:53 AM,25.0,23.0,92,30.07,10.0,SSW,3.5,-,N/A,,Clear,200,2013-10-16 09:53:00
5:53 AM,25.0,23.0,92,30.06,10.0,SSW,4.6,-,N/A,,Clear,200,2013-10-16 10:53:00
6:53 AM,24.1,23.0,96,30.06,10.0,South,3.5,-,N/A,,Clear,190,2013-10-16 11:53:00
7:53 AM,24.1,23.0,96,30.05,10.0,South,3.5,-,N/A,,Clear,190,2013-10-16 12:53:00
8:53 AM,28.0,26.1,92,30.04,9.0,South,4.6,-,N/A,,Clear,170,2013-10-16 13:53:00
9:53 AM,33.1,30.0,89,30.04,10.0,South,5.8,-,N/A,,Clear,180,2013-10-16 14:53:00
10:53 AM,39.0,33.1,79,30.04,10.0,SSW,6.9,-,N/A,,Clear,200,2013-10-16 15:53:00
11:53 AM,46.0,37.9,73,30.02,10.0,SSW,9.2,-,N/A,,Clear,210,2013-10-16 16:53:00
12:53 PM,51.1,37.9,61,29.99,10.0,SSW,8.1,-,N/A,,Clear,210,2013-10-16 17:53:00
1:53 PM,55.0,35.1,47,29.96,10.0,WSW,12.7,19.6,N/A,,Clear,240,2013-10-16 18:53:00
2:53 PM,55.9,34.0,44,29.94,10.0,West,11.5,-,N/A,,Clear,260,2013-10-16 19:53:00
3:53 PM,57.0,33.1,40,29.92,10.0,West,13.8,20.7,N/A,,Clear,260,2013-10-16 20:53:00
4:53 PM,55.9,33.1,42,29.91,10.0,WSW,15.0,-,N/A,,Clear,240,2013-10-16 21:53:00
5:53 PM,54.0,34.0,47,29.91,10.0,WSW,8.1,-,N/A,,Clear,240,2013-10-16 22:53:00
6:53 PM,46.0,33.1,61,29.91,10.0,SW,5.8,-,N/A,,Clear,220,2013-10-16 23:53:00
7:53 PM,39.0,33.1,79,29.92,10.0,SW,6.9,-,N/A,,Clear,220,2013-10-17 00:53:00
8:53 PM,37.0,32.0,82,29.91,10.0,SSW,4.6,-,N/A,,Clear,200,2013-10-17 01:53:00
9:53 PM,34.0,30.9,89,29.90,10.0,SW,4.6,-,N/A,,Clear,230,2013-10-17 02:53:00
10:53 PM,36.0,32.0,86,29.89,10.0,SW,4.6,-,N/A,,Clear,220,2013-10-17 03:53:00
11:53 PM,36.0,33.1,89,29.88,10.0,Calm,Calm,-,N/A,,Clear,0,2013-10-17 04:53:00